Weather History for Atuona, French Polynesia

Change the Weather History Date:

Thursday, April 26, 2012

  Actual Average Record
Temperature  
Mean Temperature 82 °F -  
Max Temperature 90 °F 86 °F - ()
Min Temperature 74 °F 73 °F - ()
Cooling Degree Days 17    
Growing Degree Days 32 (Base 50)    
Moisture  
Dew Point 73 °F    
Average Humidity 74    
Maximum Humidity 87    
Minimum Humidity 58    
Precipitation  
Precipitation 0.00 in 0.19 in - ()
Sea Level Pressure  
Sea Level Pressure 29.86 in    
Wind  
Wind Speed 5 mph ()    
Max Wind Speed 27 mph    
Max Gust Speed -    
Visibility 12.0 miles    
Events      
T = Trace of Precipitation, MM = Missing Value Source: Averaged Metar Reports

Daily Weather History Graph

Daily Weather History Graph

Search for Another Location

Airport:

Trip Planner

Search our weather history database for the weather conditions in past years. The results will help you decide how hot, cold, wet, or windy it might be!

Date:

Astronomy

Apr. 26, 2012 Rise Set
Actual Time 5:50 AM MART 5:37 PM MART
Civil Twilight 5:28 AM MART 5:58 PM MART
Nautical Twilight 5:03 AM MART 6:23 PM MART
Astronomical Twilight 4:38 AM MART 6:48 PM MART
Moon 10:10 AM MART (4/26) 10:04 PM MART (4/26)
Length of Visible Light 12h 30m
Length of Day
11h 47m
Waxing Crescent, 26% of the Moon is Illuminated
Apr 26
Waxing Crescent
Apr 29
First Quarter
May 5
Full
May 12
Last Quarter
May 20
New

Hourly Weather History & Observations

Time (MART) Temp. Dew Point Humidity Pressure Visibility Wind Dir Wind Speed Gust Speed Precip Events Conditions
12:30 AM 75 °F 72 °F 87% 29.88 in - Calm Calm - -  
1:30 AM 75 °F 71 °F 83% 29.86 in - North 1.2 mph - -  
2:30 AM 75 °F 70 °F 80% 29.85 in - WNW 3.5 mph - -  
3:30 AM 74 °F 70 °F 83% 29.85 in - North 3.5 mph - -  
4:30 AM 75 °F 71 °F 82% 29.85 in - North 2.3 mph - -  
5:30 AM 74 °F 70 °F 85% 29.85 in 12 mi North 2.3 mph - -   Scattered Clouds
6:30 AM 76 °F 71 °F 80% 29.87 in - North 1.2 mph - -  
7:30 AM 81 °F 73 °F 71% 29.88 in - Calm Calm - -  
8:30 AM 85 °F 72 °F 58% 29.89 in 22 mi ENE 2.3 mph - -   Scattered Clouds
9:30 AM 90 °F 78 °F 61% 29.89 in - ESE 6.9 mph - -  
10:30 AM 86 °F 74 °F 60% 29.88 in - East 11.5 mph - -  
11:30 AM 86 °F 75 °F 63% 29.86 in 22 mi East 26.8 mph - -   Scattered Clouds
12:30 PM 85 °F 75 °F 64% 29.85 in - East 15.0 mph - -  
1:30 PM 86 °F 75 °F 62% 29.82 in - East 15.0 mph - -  
2:30 PM 85 °F 74 °F 62% 29.80 in - East 15.0 mph - -  
3:30 PM 83 °F 74 °F 68% 29.82 in - East 12.7 mph - -  
4:30 PM 82 °F 74 °F 70% 29.83 in - East 11.5 mph - -  
5:30 PM 81 °F 73 °F 72% 29.84 in - East 6.7 mph - -  
6:30 PM 79 °F 73 °F 78% 29.86 in - NNW 1.2 mph - -  
8:30 PM 77 °F 73 °F 85% 29.90 in - NNE 2.3 mph - -  
9:30 PM 77 °F 72 °F 81% 29.91 in - NE 3.5 mph - -  
10:30 PM 77 °F 72 °F 81% 29.91 in - North 3.5 mph - -  
11:30 PM 77 °F 72 °F 81% 29.91 in - NNE 4.6 mph - -